Time,TemperatureF,DewpointF,PressureIn,WindDirection,WindDirectionDegrees,WindSpeedMPH,WindSpeedGustMPH,Humidity,HourlyPrecipIn,Conditions,Clouds,dailyrainin,SoftwareType,DateUTC
2013-02-17 00:00:00,14.5,10.3,30.20,WNW,302,2.0,4.0,83,0.00,,,0.00,Wunderground v.1.15,2013-02-17 05:00:00,
2013-02-17 00:01:00,14.5,10.3,30.20,NW,308,2.0,4.0,83,0.00,,,0.00,Wunderground v.1.15,2013-02-17 05:01:00,
2013-02-17 00:02:00,14.5,10.3,30.20,WNW,295,2.0,4.0,83,0.00,,,0.00,Wunderground v.1.15,2013-02-17 05:02:00,
2013-02-17 00:03:00,14.5,10.3,30.20,NW,311,2.0,4.0,83,0.00,,,0.00,Wunderground v.1.15,2013-02-17 05:03:00,
2013-02-17 00:09:00,14.4,10.2,30.20,NW,307,2.0,4.0,83,0.00,,,0.00,Wunderground v.1.15,2013-02-17 05:09:00,
2013-02-17 00:15:00,14.4,9.9,30.20,WNW,290,2.0,4.0,82,0.00,,,0.00,Wunderground v.1.15,2013-02-17 05:15:00,
2013-02-17 00:21:00,14.3,9.8,30.20,WNW,301,2.0,2.0,82,0.00,,,0.00,Wunderground v.1.15,2013-02-17 05:21:00,
2013-02-17 00:27:00,14.3,9.8,30.20,NW,304,3.0,3.0,82,0.00,,,0.00,Wunderground v.1.15,2013-02-17 05:27:00,
2013-02-17 00:33:00,14.3,9.8,30.20,NW,316,3.0,9.0,82,0.00,,,0.00,Wunderground v.1.15,2013-02-17 05:33:00,
2013-02-17 00:39:00,14.3,9.8,30.21,NW,309,3.0,9.0,82,0.00,,,0.00,Wunderground v.1.15,2013-02-17 05:39:00,
2013-02-17 00:45:00,14.3,9.8,30.21,WNW,293,3.0,9.0,82,0.00,,,0.00,Wunderground v.1.15,2013-02-17 05:45:00,
2013-02-17 00:50:00,14.2,9.4,30.20,WNW,294,3.0,9.0,81,0.00,,,0.00,Wunderground v.1.15,2013-02-17 05:50:00,
2013-02-17 00:56:00,14.2,9.4,30.21,NW,314,3.0,9.0,81,0.00,,,0.00,Wunderground v.1.15,2013-02-17 05:56:00,
2013-02-17 01:02:00,14.2,9.4,30.21,WNW,302,4.0,5.0,81,0.00,,,0.00,Wunderground v.1.15,2013-02-17 06:02:00,
2013-02-17 01:08:00,14.1,9.3,30.21,NW,307,3.0,5.0,81,0.00,,,0.00,Wunderground v.1.15,2013-02-17 06:08:00,
2013-02-17 01:14:00,14.1,9.3,30.21,WNW,289,3.0,5.0,81,0.00,,,0.00,Wunderground v.1.15,2013-02-17 06:14:00,
2013-02-17 01:20:00,14.2,9.4,30.21,NW,307,4.0,4.0,81,0.00,,,0.00,Wunderground v.1.15,2013-02-17 06:20:00,
2013-02-17 01:26:00,14.1,9.3,30.21,WNW,293,4.0,5.0,81,0.00,,,0.00,Wunderground v.1.15,2013-02-17 06:26:00,
2013-02-17 01:32:00,14.1,9.3,30.21,WNW,302,3.0,6.0,81,0.00,,,0.00,Wunderground v.1.15,2013-02-17 06:32:00,
2013-02-17 01:38:00,13.9,9.1,30.21,NW,322,3.0,6.0,81,0.00,,,0.00,Wunderground v.1.15,2013-02-17 06:38:00,
2013-02-17 01:44:00,13.9,9.1,30.21,NW,314,3.0,6.0,81,0.00,,,0.00,Wunderground v.1.15,2013-02-17 06:44:00,
2013-02-17 01:49:00,13.8,9.3,30.20,NW,307,3.0,6.0,82,0.00,,,0.00,Wunderground v.1.15,2013-02-17 06:49:00,
2013-02-17 01:55:00,13.7,9.2,30.21,NW,306,3.0,6.0,82,0.00,,,0.00,Wunderground v.1.15,2013-02-17 06:55:00,
2013-02-17 02:00:00,13.7,9.0,30.21,WNW,293,3.0,5.0,81,0.00,,,0.00,Wunderground v.1.15,2013-02-17 07:00:00,
2013-02-17 02:06:00,13.7,9.0,30.21,NW,314,4.0,8.0,81,0.00,,,0.00,Wunderground v.1.15,2013-02-17 07:06:00,
2013-02-17 02:12:00,13.6,8.9,30.21,WNW,302,4.0,5.0,81,0.00,,,0.00,Wunderground v.1.15,2013-02-17 07:12:00,
2013-02-17 02:18:00,13.6,8.9,30.21,WNW,301,4.0,5.0,81,0.00,,,0.00,Wunderground v.1.15,2013-02-17 07:18:00,
2013-02-17 02:24:00,13.6,8.9,30.21,NW,305,4.0,7.0,81,0.00,,,0.00,Wunderground v.1.15,2013-02-17 07:24:00,
2013-02-17 02:30:00,13.5,8.8,30.21,NW,311,5.0,5.0,81,0.00,,,0.00,Wunderground v.1.15,2013-02-17 07:30:00,
2013-02-17 02:36:00,13.4,8.7,30.21,NW,312,4.0,8.0,81,0.00,,,0.00,Wunderground v.1.15,2013-02-17 07:36:00,
2013-02-17 02:41:00,13.3,8.6,30.21,NW,316,4.0,8.0,81,0.00,,,0.00,Wunderground v.1.15,2013-02-17 07:41:00,
2013-02-17 02:47:00,13.3,8.6,30.21,WNW,293,4.0,8.0,81,0.00,,,0.00,Wunderground v.1.15,2013-02-17 07:47:00,
2013-02-17 02:53:00,13.3,8.6,30.21,WNW,300,4.0,8.0,81,0.00,,,0.00,Wunderground v.1.15,2013-02-17 07:53:00,
2013-02-17 02:59:00,13.3,8.3,30.21,NW,317,4.0,8.0,80,0.00,,,0.00,Wunderground v.1.15,2013-02-17 07:59:00,
2013-02-17 03:05:00,13.3,8.3,30.21,NW,322,5.0,6.0,80,0.00,,,0.00,Wunderground v.1.15,2013-02-17 08:05:00,
2013-02-17 03:11:00,13.2,8.2,30.21,WNW,290,5.0,5.0,80,0.00,,,0.00,Wunderground v.1.15,2013-02-17 08:11:00,
2013-02-17 03:17:00,13.2,8.2,30.21,NW,305,5.0,6.0,80,0.00,,,0.00,Wunderground v.1.15,2013-02-17 08:17:00,
2013-02-17 03:23:00,13.1,8.1,30.21,NW,316,5.0,6.0,80,0.00,,,0.00,Wunderground v.1.15,2013-02-17 08:23:00,
2013-02-17 03:29:00,13.1,8.1,30.21,WNW,288,5.0,9.0,80,0.00,,,0.00,Wunderground v.1.15,2013-02-17 08:29:00,
2013-02-17 03:35:00,13.2,7.9,30.21,NW,308,5.0,9.0,79,0.00,,,0.00,Wunderground v.1.15,2013-02-17 08:35:00,
2013-02-17 03:40:00,13.2,7.9,30.21,NW,322,5.0,9.0,79,0.00,,,0.00,Wunderground v.1.15,2013-02-17 08:40:00,
2013-02-17 03:46:00,13.2,7.9,30.21,NW,314,6.0,9.0,79,0.00,,,0.00,Wunderground v.1.15,2013-02-17 08:46:00,
2013-02-17 03:52:00,13.2,8.2,30.21,WNW,294,4.0,9.0,80,0.00,,,0.00,Wunderground v.1.15,2013-02-17 08:52:00,
2013-02-17 03:58:00,13.0,8.0,30.21,WNW,285,3.0,9.0,80,0.00,,,0.00,Wunderground v.1.15,2013-02-17 08:58:00,
2013-02-17 04:04:00,12.8,8.1,30.21,WNW,285,3.0,3.0,81,0.00,,,0.00,Wunderground v.1.15,2013-02-17 09:04:00,
2013-02-17 04:10:00,12.6,7.9,30.21,NNW,329,3.0,3.0,81,0.00,,,0.00,Wunderground v.1.15,2013-02-17 09:10:00,
2013-02-17 04:16:00,12.6,7.9,30.22,NW,305,3.0,4.0,81,0.00,,,0.00,Wunderground v.1.15,2013-02-17 09:16:00,
2013-02-17 04:22:00,12.5,7.8,30.22,South,191,3.0,4.0,81,0.00,,,0.00,Wunderground v.1.15,2013-02-17 09:22:00,
2013-02-17 04:28:00,12.5,7.5,30.22,NNW,330,3.0,7.0,80,0.00,,,0.00,Wunderground v.1.15,2013-02-17 09:28:00,
2013-02-17 04:33:00,12.6,7.6,30.22,SSW,197,5.0,10.0,80,0.00,,,0.00,Wunderground v.1.15,2013-02-17 09:33:00,
2013-02-17 04:39:00,12.6,7.6,30.22,WNW,302,5.0,10.0,80,0.00,,,0.00,Wunderground v.1.15,2013-02-17 09:39:00,
2013-02-17 04:45:00,12.5,7.5,30.22,WSW,252,3.0,10.0,80,0.00,,,0.00,Wunderground v.1.15,2013-02-17 09:45:00,
2013-02-17 04:51:00,12.4,7.4,30.22,South,172,2.0,3.0,80,0.00,,,0.00,Wunderground v.1.15,2013-02-17 09:51:00,
2013-02-17 04:57:00,12.3,7.3,30.22,SW,218,3.0,10.0,80,0.00,,,0.00,Wunderground v.1.15,2013-02-17 09:57:00,
2013-02-17 05:03:00,12.3,7.3,30.22,West,263,3.0,5.0,80,0.00,,,0.00,Wunderground v.1.15,2013-02-17 10:03:00,
2013-02-17 05:09:00,12.0,7.0,30.22,WNW,290,3.0,5.0,80,0.00,,,0.00,Wunderground v.1.15,2013-02-17 10:09:00,
2013-02-17 05:15:00,11.9,6.9,30.22,SSW,198,2.0,3.0,80,0.00,,,0.00,Wunderground v.1.15,2013-02-17 10:15:00,
2013-02-17 05:20:00,11.8,7.1,30.22,NW,312,2.0,2.0,81,0.00,,,0.00,Wunderground v.1.15,2013-02-17 10:20:00,
2013-02-17 05:26:00,11.7,7.0,30.23,West,266,2.0,5.0,81,0.00,,,0.00,Wunderground v.1.15,2013-02-17 10:26:00,
2013-02-17 05:32:00,11.5,6.8,30.23,West,259,2.0,9.0,81,0.00,,,0.00,Wunderground v.1.15,2013-02-17 10:32:00,
2013-02-17 05:38:00,11.5,6.8,30.23,WSW,252,3.0,9.0,81,0.00,,,0.00,Wunderground v.1.15,2013-02-17 10:38:00,
2013-02-17 05:44:00,11.4,6.7,30.23,South,186,3.0,9.0,81,0.00,,,0.00,Wunderground v.1.15,2013-02-17 10:44:00,
2013-02-17 05:50:00,11.4,6.7,30.23,North,355,2.0,2.0,81,0.00,,,0.00,Wunderground v.1.15,2013-02-17 10:50:00,
2013-02-17 05:56:00,11.3,6.6,30.24,SW,224,3.0,9.0,81,0.00,,,0.00,Wunderground v.1.15,2013-02-17 10:56:00,
2013-02-17 06:02:00,11.2,6.5,30.24,West,264,3.0,6.0,81,0.00,,,0.00,Wunderground v.1.15,2013-02-17 11:02:00,
2013-02-17 06:08:00,11.2,6.5,30.24,WNW,302,3.0,6.0,81,0.00,,,0.00,Wunderground v.1.15,2013-02-17 11:08:00,
2013-02-17 06:14:00,11.3,6.6,30.24,WNW,287,3.0,3.0,81,0.00,,,0.00,Wunderground v.1.15,2013-02-17 11:14:00,
2013-02-17 06:20:00,11.3,6.3,30.24,North,352,3.0,4.0,80,0.00,,,0.00,Wunderground v.1.15,2013-02-17 11:20:00,
2013-02-17 06:25:00,11.4,6.4,30.24,SW,232,3.0,4.0,80,0.00,,,0.00,Wunderground v.1.15,2013-02-17 11:25:00,
2013-02-17 06:31:00,11.3,6.3,30.25,WNW,298,3.0,4.0,80,0.00,,,0.00,Wunderground v.1.15,2013-02-17 11:31:00,
2013-02-17 06:37:00,11.3,6.3,30.25,WNW,289,2.0,7.0,80,0.00,,,0.00,Wunderground v.1.15,2013-02-17 11:37:00,
2013-02-17 06:43:00,11.3,6.3,30.25,SW,226,3.0,7.0,80,0.00,,,0.00,Wunderground v.1.15,2013-02-17 11:43:00,
2013-02-17 06:49:00,11.3,6.1,30.25,NNW,340,3.0,7.0,79,0.00,,,0.00,Wunderground v.1.15,2013-02-17 11:49:00,
2013-02-17 06:55:00,11.3,6.1,30.26,WNW,295,3.0,7.0,79,0.00,,,0.00,Wunderground v.1.15,2013-02-17 11:55:00,
2013-02-17 07:00:00,11.3,6.1,30.26,NW,322,3.0,3.0,79,0.00,,,0.00,Wunderground v.1.15,2013-02-17 12:00:00,
2013-02-17 07:05:00,11.3,6.1,30.26,WSW,248,3.0,3.0,79,0.00,,,0.00,Wunderground v.1.15,2013-02-17 12:05:00,
2013-02-17 07:11:00,11.3,6.1,30.26,NW,314,3.0,4.0,79,0.00,,,0.00,Wunderground v.1.15,2013-02-17 12:11:00,
2013-02-17 07:17:00,11.3,6.1,30.26,SW,235,3.0,7.0,79,0.00,,,0.00,Wunderground v.1.15,2013-02-17 12:17:00,
2013-02-17 07:23:00,11.2,6.0,30.26,SW,219,3.0,3.0,79,0.00,,,0.00,Wunderground v.1.15,2013-02-17 12:23:00,
2013-02-17 07:29:00,11.0,6.0,30.26,NW,304,2.0,3.0,80,0.00,,,0.00,Wunderground v.1.15,2013-02-17 12:29:00,
2013-02-17 07:35:00,10.9,5.9,30.26,WSW,256,2.0,8.0,80,0.00,,,0.00,Wunderground v.1.15,2013-02-17 12:35:00,
2013-02-17 07:41:00,10.9,5.9,30.26,WNW,302,2.0,8.0,80,0.00,,,0.00,Wunderground v.1.15,2013-02-17 12:41:00,
2013-02-17 07:46:00,10.9,5.9,30.27,ENE,63,2.0,8.0,80,0.00,,,0.00,Wunderground v.1.15,2013-02-17 12:46:00,
2013-02-17 07:52:00,11.1,6.1,30.27,West,260,2.0,8.0,80,0.00,,,0.00,Wunderground v.1.15,2013-02-17 12:52:00,
2013-02-17 07:58:00,11.7,6.4,30.27,ENE,68,3.0,8.0,79,0.00,,,0.00,Wunderground v.1.15,2013-02-17 12:58:00,
2013-02-17 08:04:00,12.2,6.7,30.28,NE,36,3.0,3.0,78,0.00,,,0.00,Wunderground v.1.15,2013-02-17 13:04:00,
2013-02-17 08:10:00,12.6,7.0,30.28,West,279,3.0,3.0,78,0.00,,,0.00,Wunderground v.1.15,2013-02-17 13:10:00,
2013-02-17 08:16:00,12.8,6.7,30.28,West,269,3.0,6.0,76,0.00,,,0.00,Wunderground v.1.15,2013-02-17 13:16:00,
2013-02-17 08:22:00,12.9,6.8,30.28,SSE,167,4.0,4.0,76,0.00,,,0.00,Wunderground v.1.15,2013-02-17 13:22:00,
2013-02-17 08:28:00,13.1,7.0,30.28,NE,44,4.0,5.0,76,0.00,,,0.00,Wunderground v.1.15,2013-02-17 13:28:00,
2013-02-17 08:34:00,13.5,7.3,30.28,WNW,302,3.0,8.0,76,0.00,,,0.00,Wunderground v.1.15,2013-02-17 13:34:00,
2013-02-17 08:40:00,13.9,7.7,30.28,NW,311,3.0,8.0,76,0.00,,,0.00,Wunderground v.1.15,2013-02-17 13:40:00,
2013-02-17 08:46:00,14.1,7.6,30.28,NW,314,4.0,8.0,75,0.00,,,0.00,Wunderground v.1.15,2013-02-17 13:46:00,
2013-02-17 08:52:00,14.5,8.0,30.28,NNW,330,4.0,8.0,75,0.00,,,0.00,Wunderground v.1.15,2013-02-17 13:52:00,
2013-02-17 08:57:00,15.1,8.6,30.28,NW,308,4.0,8.0,75,0.00,,,0.00,Wunderground v.1.15,2013-02-17 13:57:00,
2013-02-17 09:03:00,15.4,8.3,30.29,WNW,293,4.0,9.0,73,0.00,,,0.00,Wunderground v.1.15,2013-02-17 14:03:00,
2013-02-17 09:08:00,15.8,9.0,30.29,WNW,300,5.0,9.0,74,0.00,,,0.00,Wunderground v.1.15,2013-02-17 14:08:00,
2013-02-17 09:14:00,16.1,9.0,30.29,South,181,6.0,8.0,73,0.00,,,0.00,Wunderground v.1.15,2013-02-17 14:14:00,
2013-02-17 09:20:00,16.7,9.8,30.29,WNW,297,5.0,10.0,74,0.00,,,0.00,Wunderground v.1.15,2013-02-17 14:20:00,
2013-02-17 09:26:00,16.9,9.4,30.30,North,359,4.0,10.0,72,0.00,,,0.00,Wunderground v.1.15,2013-02-17 14:26:00,
2013-02-17 09:31:00,17.0,9.8,30.29,NNW,334,5.0,8.0,73,0.00,,,0.00,Wunderground v.1.15,2013-02-17 14:31:00,
2013-02-17 09:37:00,17.6,10.4,30.29,ENE,64,5.0,8.0,73,0.00,,,0.00,Wunderground v.1.15,2013-02-17 14:37:00,
2013-02-17 09:43:00,17.6,10.1,30.29,NW,324,4.0,8.0,72,0.00,,,0.00,Wunderground v.1.15,2013-02-17 14:43:00,
2013-02-17 09:49:00,17.7,10.5,30.29,NW,314,6.0,8.0,73,0.00,,,0.00,Wunderground v.1.15,2013-02-17 14:49:00,
2013-02-17 09:55:00,17.8,10.6,30.29,NW,321,6.0,8.0,73,0.00,,,0.00,Wunderground v.1.15,2013-02-17 14:55:00,
2013-02-17 10:00:00,18.1,10.9,30.30,NNW,340,5.0,5.0,73,0.00,,,0.00,Wunderground v.1.15,2013-02-17 15:00:00,
2013-02-17 10:06:00,18.5,11.0,30.29,NE,39,5.0,8.0,72,0.00,,,0.00,Wunderground v.1.15,2013-02-17 15:06:00,
2013-02-17 10:11:00,18.7,11.2,30.30,West,276,5.0,8.0,72,0.00,,,0.00,Wunderground v.1.15,2013-02-17 15:11:00,
2013-02-17 10:17:00,18.9,11.4,30.30,NW,307,5.0,8.0,72,0.00,,,0.00,Wunderground v.1.15,2013-02-17 15:17:00,
2013-02-17 10:23:00,19.1,11.9,30.30,NW,324,5.0,6.0,73,0.00,,,0.00,Wunderground v.1.15,2013-02-17 15:23:00,
2013-02-17 10:29:00,19.4,12.5,30.30,WSW,248,5.0,6.0,74,0.00,,,0.00,Wunderground v.1.15,2013-02-17 15:29:00,
2013-02-17 10:35:00,19.8,12.5,30.30,NW,312,5.0,11.0,73,0.00,,,0.00,Wunderground v.1.15,2013-02-17 15:35:00,
2013-02-17 10:41:00,19.6,11.7,30.30,NW,314,5.0,11.0,71,0.00,,,0.00,Wunderground v.1.15,2013-02-17 15:41:00,
2013-02-17 10:47:00,19.7,12.1,30.30,NW,326,5.0,11.0,72,0.00,,,0.00,Wunderground v.1.15,2013-02-17 15:47:00,
2013-02-17 10:53:00,20.0,12.1,30.30,WSW,257,6.0,11.0,71,0.00,,,0.00,Wunderground v.1.15,2013-02-17 15:53:00,
2013-02-17 10:58:00,20.4,12.5,30.30,NNW,342,4.0,11.0,71,0.00,,,0.00,Wunderground v.1.15,2013-02-17 15:58:00,
2013-02-17 11:04:00,20.5,11.9,30.30,NW,320,4.0,8.0,69,0.00,,,0.00,Wunderground v.1.15,2013-02-17 16:04:00,
2013-02-17 11:10:00,20.9,12.6,30.30,NW,304,4.0,4.0,70,0.00,,,0.00,Wunderground v.1.15,2013-02-17 16:10:00,
2013-02-17 11:16:00,21.4,13.1,30.30,NW,318,3.0,8.0,70,0.00,,,0.00,Wunderground v.1.15,2013-02-17 16:16:00,
2013-02-17 11:21:00,21.7,13.4,30.30,North,359,4.0,7.0,70,0.00,,,0.00,Wunderground v.1.15,2013-02-17 16:21:00,
2013-02-17 11:27:00,22.1,13.1,30.30,NNW,336,5.0,8.0,68,0.00,,,0.00,Wunderground v.1.15,2013-02-17 16:27:00,
2013-02-17 11:33:00,21.9,13.0,30.31,NW,324,6.0,9.0,68,0.00,,,0.00,Wunderground v.1.15,2013-02-17 16:33:00,
2013-02-17 11:39:00,21.9,12.3,30.31,West,274,5.0,9.0,66,0.00,,,0.00,Wunderground v.1.15,2013-02-17 16:39:00,
2013-02-17 11:45:00,22.3,13.0,30.31,SW,219,4.0,9.0,67,0.00,,,0.00,Wunderground v.1.15,2013-02-17 16:45:00,
2013-02-17 11:51:00,23.5,13.5,30.30,SW,229,3.0,9.0,65,0.00,,,0.00,Wunderground v.1.15,2013-02-17 16:51:00,
2013-02-17 11:57:00,23.8,14.1,30.30,WNW,291,4.0,9.0,66,0.00,,,0.00,Wunderground v.1.15,2013-02-17 16:57:00,
2013-02-17 12:03:00,24.2,13.8,30.30,NW,311,3.0,4.0,64,0.00,,,0.00,Wunderground v.1.15,2013-02-17 17:03:00,
2013-02-17 12:09:00,23.9,13.5,30.30,WNW,293,2.0,4.0,64,0.00,,,0.00,Wunderground v.1.15,2013-02-17 17:09:00,
2013-02-17 12:15:00,24.4,12.9,30.30,NE,44,2.0,4.0,61,0.00,,,0.00,Wunderground v.1.15,2013-02-17 17:15:00,
2013-02-17 12:20:00,24.2,12.3,30.30,North,355,3.0,3.0,60,0.00,,,0.00,Wunderground v.1.15,2013-02-17 17:20:00,
2013-02-17 12:26:00,23.6,11.0,30.30,NNE,20,4.0,6.0,58,0.00,,,0.00,Wunderground v.1.15,2013-02-17 17:26:00,
2013-02-17 12:32:00,24.0,12.1,30.30,NNE,30,3.0,10.0,60,0.00,,,0.00,Wunderground v.1.15,2013-02-17 17:32:00,
2013-02-17 12:38:00,24.3,12.0,30.29,NW,309,3.0,10.0,59,0.00,,,0.00,Wunderground v.1.15,2013-02-17 17:38:00,
2013-02-17 12:44:00,25.2,12.9,30.29,SW,229,2.0,10.0,59,0.00,,,0.00,Wunderground v.1.15,2013-02-17 17:44:00,
2013-02-17 12:50:00,26.2,14.6,30.28,SSW,197,3.0,10.0,61,0.00,,,0.00,Wunderground v.1.15,2013-02-17 17:50:00,
2013-02-17 12:56:00,26.9,13.3,30.28,ENE,71,3.0,10.0,56,0.00,,,0.00,Wunderground v.1.15,2013-02-17 17:56:00,
2013-02-17 13:02:00,27.0,12.5,30.28,SW,236,3.0,6.0,54,0.00,,,0.00,Wunderground v.1.15,2013-02-17 18:02:00,
2013-02-17 13:08:00,25.4,11.5,30.28,SW,236,5.0,7.0,55,0.00,,,0.00,Wunderground v.1.15,2013-02-17 18:08:00,
2013-02-17 13:14:00,24.7,11.2,30.28,North,352,3.0,5.0,56,0.00,,,0.00,Wunderground v.1.15,2013-02-17 18:14:00,
2013-02-17 13:19:00,25.3,12.2,30.28,North,8,1.0,5.0,57,0.00,,,0.00,Wunderground v.1.15,2013-02-17 18:19:00,
2013-02-17 13:25:00,25.8,12.6,30.28,SSE,152,2.0,5.0,57,0.00,,,0.00,Wunderground v.1.15,2013-02-17 18:25:00,
2013-02-17 13:31:00,26.5,12.1,30.27,SW,224,4.0,5.0,54,0.00,,,0.00,Wunderground v.1.15,2013-02-17 18:31:00,
2013-02-17 13:37:00,26.7,12.3,30.27,SSW,210,5.0,9.0,54,0.00,,,0.00,Wunderground v.1.15,2013-02-17 18:37:00,
2013-02-17 13:43:00,26.1,11.3,30.27,South,170,6.0,9.0,53,0.00,,,0.00,Wunderground v.1.15,2013-02-17 18:43:00,
2013-02-17 13:48:00,26.4,13.2,30.27,South,183,6.0,9.0,57,0.00,,,0.00,Wunderground v.1.15,2013-02-17 18:48:00,
2013-02-17 13:54:00,25.4,11.9,30.28,SW,224,5.0,9.0,56,0.00,,,0.00,Wunderground v.1.15,2013-02-17 18:54:00,
2013-02-17 14:00:00,25.9,12.7,30.27,SSW,194,3.0,3.0,57,0.00,,,0.00,Wunderground v.1.15,2013-02-17 19:00:00,
2013-02-17 14:06:00,26.6,12.2,30.28,SSE,163,4.0,9.0,54,0.00,,,0.00,Wunderground v.1.15,2013-02-17 19:06:00,
2013-02-17 14:12:00,26.9,12.5,30.28,South,188,6.0,7.0,54,0.00,,,0.00,Wunderground v.1.15,2013-02-17 19:12:00,
2013-02-17 14:18:00,27.0,12.5,30.28,SSW,195,5.0,9.0,54,0.00,,,0.00,Wunderground v.1.15,2013-02-17 19:18:00,
2013-02-17 14:23:00,27.2,13.1,30.28,SW,214,6.0,9.0,55,0.00,,,0.00,Wunderground v.1.15,2013-02-17 19:23:00,
2013-02-17 14:29:00,26.9,12.5,30.28,SW,231,7.0,10.0,54,0.00,,,0.00,Wunderground v.1.15,2013-02-17 19:29:00,
2013-02-17 14:35:00,26.6,12.2,30.28,SW,221,6.0,11.0,54,0.00,,,0.00,Wunderground v.1.15,2013-02-17 19:35:00,
2013-02-17 14:41:00,26.8,11.9,30.27,SW,219,6.0,11.0,53,0.00,,,0.00,Wunderground v.1.15,2013-02-17 19:41:00,
2013-02-17 14:47:00,26.8,13.2,30.28,WSW,257,6.0,11.0,56,0.00,,,0.00,Wunderground v.1.15,2013-02-17 19:47:00,
2013-02-17 14:53:00,27.0,12.5,30.28,West,262,6.0,11.0,54,0.00,,,0.00,Wunderground v.1.15,2013-02-17 19:53:00,
2013-02-17 14:59:00,26.9,12.0,30.27,ESE,122,7.0,12.0,53,0.00,,,0.00,Wunderground v.1.15,2013-02-17 19:59:00,
2013-02-17 15:05:00,27.1,12.6,30.27,South,173,7.0,9.0,54,0.00,,,0.00,Wunderground v.1.15,2013-02-17 20:05:00,
2013-02-17 15:11:00,27.4,13.3,30.27,SSW,207,7.0,10.0,55,0.00,,,0.00,Wunderground v.1.15,2013-02-17 20:11:00,
2013-02-17 15:17:00,27.3,12.4,30.27,SW,215,6.0,11.0,53,0.00,,,0.00,Wunderground v.1.15,2013-02-17 20:17:00,
2013-02-17 15:23:00,27.2,12.3,30.27,SW,229,7.0,9.0,53,0.00,,,0.00,Wunderground v.1.15,2013-02-17 20:23:00,
2013-02-17 15:28:00,27.3,13.7,30.26,SSW,208,6.0,9.0,56,0.00,,,0.00,Wunderground v.1.15,2013-02-17 20:28:00,
2013-02-17 15:34:00,27.3,12.0,30.26,SW,217,5.0,13.0,52,0.00,,,0.00,Wunderground v.1.15,2013-02-17 20:34:00,
2013-02-17 15:40:00,27.2,11.9,30.26,SSW,213,6.0,13.0,52,0.00,,,0.00,Wunderground v.1.15,2013-02-17 20:40:00,
2013-02-17 15:46:00,27.5,11.7,30.26,SSW,207,5.0,13.0,51,0.00,,,0.00,Wunderground v.1.15,2013-02-17 20:46:00,
2013-02-17 15:52:00,27.2,10.5,30.26,SSW,195,8.0,13.0,49,0.00,,,0.00,Wunderground v.1.15,2013-02-17 20:52:00,
2013-02-17 15:58:00,27.1,11.3,30.26,South,191,8.0,13.0,51,0.00,,,0.00,Wunderground v.1.15,2013-02-17 20:58:00,
2013-02-17 16:04:00,27.7,11.5,30.26,WSW,246,5.0,7.0,50,0.00,,,0.00,Wunderground v.1.15,2013-02-17 21:04:00,
2013-02-17 16:10:00,27.7,11.9,30.26,SSW,194,6.0,6.0,51,0.00,,,0.00,Wunderground v.1.15,2013-02-17 21:10:00,
2013-02-17 16:16:00,28.1,11.8,30.25,South,172,6.0,8.0,50,0.00,,,0.00,Wunderground v.1.15,2013-02-17 21:16:00,
2013-02-17 16:22:00,28.0,11.3,30.25,WSW,250,6.0,9.0,49,0.00,,,0.00,Wunderground v.1.15,2013-02-17 21:22:00,
2013-02-17 16:27:00,27.9,11.6,30.26,WSW,243,6.0,9.0,50,0.00,,,0.00,Wunderground v.1.15,2013-02-17 21:27:00,
2013-02-17 16:33:00,28.0,11.3,30.26,SSW,210,6.0,14.0,49,0.00,,,0.00,Wunderground v.1.15,2013-02-17 21:33:00,
2013-02-17 16:39:00,28.1,12.3,30.26,SW,222,6.0,14.0,51,0.00,,,0.00,Wunderground v.1.15,2013-02-17 21:39:00,
2013-02-17 16:45:00,27.9,12.5,30.26,SSW,207,6.0,14.0,52,0.00,,,0.00,Wunderground v.1.15,2013-02-17 21:45:00,
2013-02-17 16:51:00,28.1,12.7,30.25,SSW,197,4.0,14.0,52,0.00,,,0.00,Wunderground v.1.15,2013-02-17 21:51:00,
2013-02-17 16:56:00,28.4,13.9,30.25,SSW,197,4.0,14.0,54,0.00,,,0.00,Wunderground v.1.15,2013-02-17 21:56:00,
2013-02-17 17:02:00,28.5,13.5,30.25,South,170,5.0,6.0,53,0.00,,,0.00,Wunderground v.1.15,2013-02-17 22:02:00,
2013-02-17 17:08:00,28.5,13.1,30.25,SE,135,5.0,9.0,52,0.00,,,0.00,Wunderground v.1.15,2013-02-17 22:08:00,
2013-02-17 17:14:00,28.5,13.1,30.25,South,176,5.0,7.0,52,0.00,,,0.00,Wunderground v.1.15,2013-02-17 22:14:00,
2013-02-17 17:20:00,28.0,12.6,30.25,South,172,5.0,5.0,52,0.00,,,0.00,Wunderground v.1.15,2013-02-17 22:20:00,
2013-02-17 17:25:00,27.6,12.7,30.25,SSW,203,5.0,7.0,53,0.00,,,0.00,Wunderground v.1.15,2013-02-17 22:25:00,
2013-02-17 17:31:00,27.4,12.9,30.25,SSE,160,5.0,12.0,54,0.00,,,0.00,Wunderground v.1.15,2013-02-17 22:31:00,
2013-02-17 17:37:00,27.8,12.9,30.25,SSE,162,4.0,12.0,53,0.00,,,0.00,Wunderground v.1.15,2013-02-17 22:37:00,
2013-02-17 17:43:00,27.5,13.8,30.25,South,180,5.0,12.0,56,0.00,,,0.00,Wunderground v.1.15,2013-02-17 22:43:00,
2013-02-17 17:49:00,27.3,13.7,30.24,SSW,198,4.0,12.0,56,0.00,,,0.00,Wunderground v.1.15,2013-02-17 22:49:00,
2013-02-17 17:55:00,27.1,13.5,30.24,South,184,4.0,12.0,56,0.00,,,0.00,Wunderground v.1.15,2013-02-17 22:55:00,
2013-02-17 18:00:00,26.9,13.7,30.24,SE,131,4.0,4.0,57,0.00,,,0.00,Wunderground v.1.15,2013-02-17 23:00:00,
2013-02-17 18:06:00,26.6,13.4,30.24,SSE,167,3.0,5.0,57,0.00,,,0.00,Wunderground v.1.15,2013-02-17 23:06:00,
2013-02-17 18:11:00,26.4,13.2,30.24,SSE,149,3.0,4.0,57,0.00,,,0.00,Wunderground v.1.15,2013-02-17 23:11:00,
2013-02-17 18:17:00,26.2,13.4,30.24,South,179,3.0,5.0,58,0.00,,,0.00,Wunderground v.1.15,2013-02-17 23:17:00,
2013-02-17 18:23:00,25.9,13.5,30.24,SSW,208,3.0,3.0,59,0.00,,,0.00,Wunderground v.1.15,2013-02-17 23:23:00,
2013-02-17 18:29:00,25.7,14.1,30.24,SE,127,2.0,3.0,61,0.00,,,0.00,Wunderground v.1.15,2013-02-17 23:29:00,
2013-02-17 18:34:00,25.5,13.9,30.24,SE,136,2.0,9.0,61,0.00,,,0.00,Wunderground v.1.15,2013-02-17 23:34:00,
2013-02-17 18:39:00,25.3,14.1,30.24,SE,127,2.0,9.0,62,0.00,,,0.00,Wunderground v.1.15,2013-02-17 23:39:00,
2013-02-17 18:45:00,25.1,13.9,30.24,SE,124,2.0,9.0,62,0.00,,,0.00,Wunderground v.1.15,2013-02-17 23:45:00,
2013-02-17 18:51:00,25.0,14.2,30.24,SE,142,2.0,9.0,63,0.00,,,0.00,Wunderground v.1.15,2013-02-17 23:51:00,
2013-02-17 18:57:00,24.9,14.4,30.24,SE,131,2.0,9.0,64,0.00,,,0.00,Wunderground v.1.15,2013-02-17 23:57:00,
2013-02-17 19:03:00,24.7,14.9,30.24,SE,134,2.0,3.0,66,0.00,,,0.00,Wunderground v.1.15,2013-02-18 00:03:00,
2013-02-17 19:09:00,24.6,14.9,30.23,SE,135,2.0,3.0,66,0.00,,,0.00,Wunderground v.1.15,2013-02-18 00:09:00,
2013-02-17 19:15:00,24.5,15.1,30.23,SE,131,2.0,2.0,67,0.00,,,0.00,Wunderground v.1.15,2013-02-18 00:15:00,
2013-02-17 19:20:00,24.5,15.1,30.23,SE,143,2.0,2.0,67,0.00,,,0.00,Wunderground v.1.15,2013-02-18 00:20:00,
2013-02-17 19:26:00,24.4,15.0,30.23,SE,133,2.0,4.0,67,0.00,,,0.00,Wunderground v.1.15,2013-02-18 00:26:00,
2013-02-17 19:32:00,24.4,15.3,30.23,SE,130,2.0,6.0,68,0.00,,,0.00,Wunderground v.1.15,2013-02-18 00:32:00,
2013-02-17 19:38:00,24.4,15.3,30.23,South,184,3.0,6.0,68,0.00,,,0.00,Wunderground v.1.15,2013-02-18 00:38:00,
2013-02-17 19:44:00,24.3,15.6,30.23,SE,131,2.0,6.0,69,0.00,,,0.00,Wunderground v.1.15,2013-02-18 00:44:00,
2013-02-17 19:50:00,24.3,15.6,30.23,SE,136,2.0,6.0,69,0.00,,,0.00,Wunderground v.1.15,2013-02-18 00:50:00,
2013-02-17 19:56:00,24.2,15.8,30.23,ESE,117,2.0,6.0,70,0.00,,,0.00,Wunderground v.1.15,2013-02-18 00:56:00,
2013-02-17 20:02:00,24.1,16.1,30.23,SE,134,2.0,2.0,71,0.00,,,0.00,Wunderground v.1.15,2013-02-18 01:02:00,
2013-02-17 20:08:00,24.0,16.0,30.23,SE,125,2.0,3.0,71,0.00,,,0.00,Wunderground v.1.15,2013-02-18 01:08:00,
2013-02-17 20:14:00,24.0,16.0,30.23,SE,128,2.0,3.0,71,0.00,,,0.00,Wunderground v.1.15,2013-02-18 01:14:00,
2013-02-17 20:20:00,23.9,16.2,30.23,ESE,117,2.0,2.0,72,0.00,,,0.00,Wunderground v.1.15,2013-02-18 01:20:00,
2013-02-17 20:26:00,23.6,16.2,30.23,SE,134,2.0,2.0,73,0.00,,,0.00,Wunderground v.1.15,2013-02-18 01:26:00,
2013-02-17 20:32:00,23.4,16.0,30.23,SE,133,1.0,5.0,73,0.00,,,0.00,Wunderground v.1.15,2013-02-18 01:32:00,
2013-02-17 20:38:00,23.4,16.0,30.23,ESE,120,1.0,5.0,73,0.00,,,0.00,Wunderground v.1.15,2013-02-18 01:38:00,
2013-02-17 20:44:00,23.4,16.0,30.23,ESE,117,2.0,5.0,73,0.00,,,0.00,Wunderground v.1.15,2013-02-18 01:44:00,
2013-02-17 20:49:00,23.4,16.0,30.24,SE,146,2.0,5.0,73,0.00,,,0.00,Wunderground v.1.15,2013-02-18 01:49:00,
2013-02-17 20:54:00,23.3,15.9,30.23,SE,135,2.0,5.0,73,0.00,,,0.00,Wunderground v.1.15,2013-02-18 01:54:00,
2013-02-17 21:00:00,23.3,15.6,30.23,SE,142,2.0,2.0,72,0.00,,,0.00,Wunderground v.1.15,2013-02-18 02:00:00,
2013-02-17 21:06:00,23.1,15.4,30.23,ESE,110,2.0,4.0,72,0.00,,,0.00,Wunderground v.1.15,2013-02-18 02:06:00,
2013-02-17 21:12:00,22.8,15.4,30.23,ESE,105,1.0,2.0,73,0.00,,,0.00,Wunderground v.1.15,2013-02-18 02:12:00,
2013-02-17 21:18:00,22.7,15.3,30.23,SSE,153,1.0,3.0,73,0.00,,,0.00,Wunderground v.1.15,2013-02-18 02:18:00,
2013-02-17 21:24:00,22.7,15.3,30.23,ESE,122,1.0,3.0,73,0.00,,,0.00,Wunderground v.1.15,2013-02-18 02:24:00,
2013-02-17 21:30:00,22.9,15.5,30.23,SE,138,2.0,2.0,73,0.00,,,0.00,Wunderground v.1.15,2013-02-18 02:30:00,
2013-02-17 21:36:00,22.9,15.5,30.23,SE,131,2.0,4.0,73,0.00,,,0.00,Wunderground v.1.15,2013-02-18 02:36:00,
2013-02-17 21:42:00,22.9,15.5,30.23,East,97,2.0,4.0,73,0.00,,,0.00,Wunderground v.1.15,2013-02-18 02:42:00,
2013-02-17 21:47:00,22.9,15.5,30.23,SE,133,3.0,4.0,73,0.00,,,0.00,Wunderground v.1.15,2013-02-18 02:47:00,
2013-02-17 21:53:00,22.8,15.4,30.23,SSE,155,3.0,4.0,73,0.00,,,0.00,Wunderground v.1.15,2013-02-18 02:53:00,
2013-02-17 21:59:00,22.9,15.5,30.23,SW,229,3.0,5.0,73,0.00,,,0.00,Wunderground v.1.15,2013-02-18 02:59:00,
2013-02-17 22:04:00,22.8,15.4,30.23,SE,124,3.0,5.0,73,0.00,,,0.00,Wunderground v.1.15,2013-02-18 03:04:00,
2013-02-17 22:10:00,22.8,15.1,30.23,SE,131,2.0,4.0,72,0.00,,,0.00,Wunderground v.1.15,2013-02-18 03:10:00,
2013-02-17 22:16:00,22.7,15.3,30.24,South,171,2.0,4.0,73,0.00,,,0.00,Wunderground v.1.15,2013-02-18 03:16:00,
2013-02-17 22:22:00,22.6,14.9,30.24,SE,134,2.0,2.0,72,0.00,,,0.00,Wunderground v.1.15,2013-02-18 03:22:00,
2013-02-17 22:28:00,22.6,14.9,30.23,SE,128,2.0,5.0,72,0.00,,,0.00,Wunderground v.1.15,2013-02-18 03:28:00,
2013-02-17 22:34:00,22.7,15.0,30.23,SE,131,3.0,5.0,72,0.00,,,0.00,Wunderground v.1.15,2013-02-18 03:34:00,
2013-02-17 22:40:00,22.8,15.1,30.23,ESE,112,4.0,4.0,72,0.00,,,0.00,Wunderground v.1.15,2013-02-18 03:40:00,
2013-02-17 22:46:00,22.9,14.9,30.23,SE,139,4.0,5.0,71,0.00,,,0.00,Wunderground v.1.15,2013-02-18 03:46:00,
2013-02-17 22:51:00,22.9,14.9,30.22,SE,131,4.0,5.0,71,0.00,,,0.00,Wunderground v.1.15,2013-02-18 03:51:00,
2013-02-17 22:57:00,22.9,14.9,30.22,SE,131,4.0,5.0,71,0.00,,,0.00,Wunderground v.1.15,2013-02-18 03:57:00,
2013-02-17 23:03:00,22.9,14.9,30.22,SSE,148,4.0,4.0,71,0.00,,,0.00,Wunderground v.1.15,2013-02-18 04:03:00,
2013-02-17 23:09:00,22.9,14.9,30.22,SE,133,4.0,5.0,71,0.00,,,0.00,Wunderground v.1.15,2013-02-18 04:09:00,
2013-02-17 23:15:00,23.0,14.7,30.22,SE,143,4.0,6.0,70,0.00,,,0.00,Wunderground v.1.15,2013-02-18 04:15:00,
2013-02-17 23:21:00,23.0,14.7,30.22,SE,131,4.0,4.0,70,0.00,,,0.00,Wunderground v.1.15,2013-02-18 04:21:00,
2013-02-17 23:27:00,23.0,14.7,30.22,SE,142,4.0,5.0,70,0.00,,,0.00,Wunderground v.1.15,2013-02-18 04:27:00,
2013-02-17 23:33:00,23.1,14.8,30.21,SE,129,4.0,7.0,70,0.00,,,0.00,Wunderground v.1.15,2013-02-18 04:33:00,
2013-02-17 23:39:00,23.1,14.8,30.22,South,180,5.0,7.0,70,0.00,,,0.00,Wunderground v.1.15,2013-02-18 04:39:00,
2013-02-17 23:45:00,23.2,14.9,30.21,SE,127,4.0,5.0,70,0.00,,,0.00,Wunderground v.1.15,2013-02-18 04:45:00,
2013-02-17 23:50:00,23.3,14.6,30.21,South,169,4.0,5.0,69,0.00,,,0.00,Wunderground v.1.15,2013-02-18 04:50:00,
2013-02-17 23:56:00,23.4,14.7,30.21,ESE,117,4.0,5.0,69,0.00,,,0.00,Wunderground v.1.15,2013-02-18 04:56:00,